Baton Rouge, LA

2:41 AM CST on November 19, 2019 (GMT -0600)
Baton Rouge Metro-Ryan

Weather History for KBTR - October, 2019

Change the Weather History Date:

Sunday, October 20, 2019

  Actual Average Record
Temperature  
Mean Temperature 75 °F 68 °F  
Max Temperature 88 °F 80 °F 90 °F (1993)
Min Temperature 62 °F 56 °F 35 °F (1989)
Degree Days  
Heating Degree Days 0 2  
Month to date heating degree days 9 17  
Since 1 July heating degree days 9 19  
Cooling Degree Days 10 5  
Month to date cooling degree days 211 136  
Year to date cooling degree days 3094 2707  
Growing Degree Days 24 (Base 50)    
Moisture  
Dew Point 68 °F    
Average Humidity 77    
Maximum Humidity 93    
Minimum Humidity 61    
Precipitation  
Precipitation 0.00 in 0.17 in 2.11 in (1898)
Month to date precipitation 4.16 2.98  
Year to date precipitation 55.91 49.23  
Snow  
Snow 0.00 in - - ()
Month to date snowfall 0.0  
Since 1 July snowfall 0.0  
Since 1 September snowfall 0.0  
Snow Depth 0.00 in    
Sea Level Pressure  
Sea Level Pressure 29.86 in    
Wind  
Wind Speed 7 mph (SSE)    
Max Wind Speed 15 mph    
Max Gust Speed 20 mph    
Visibility 9 miles    
Events      
T = Trace of Precipitation, MM = Missing Value Source: NWS Daily Summary

Daily Weather History Graph

Daily Weather History Graph

Search for Another Location

Airport or City:

Astronomy

Oct. 20, 2019 Rise Set
Actual Time 7:10 AM CDT 6:28 PM CDT
Civil Twilight 6:45 AM CDT 6:52 PM CDT
Nautical Twilight 6:17 AM CDT 7:20 PM CDT
Astronomical Twilight 5:49 AM CDT 7:48 PM CDT
Moon 11:53 PM CDT (10/20) 1:22 PM CDT (10/20)
Length of Visible Light 12h 06m
Length of Day
11h 18m
Waning Gibbous, 59% of the Moon is Illuminated
Oct 20
Waning Gibbous
Oct 21
Last Quarter
Oct 27
New
Nov 4
First Quarter
Nov 12
Full

Hourly Weather History & Observations

Time (CDT) Temp. Heat Index Dew Point Humidity Pressure Visibility Wind Dir Wind Speed Gust Speed Precip Events Conditions
12:53 AM 63.0 °F - 61.0 °F 93% 29.82 in 10.0 mi Calm Calm - N/A   Clear
1:53 AM 63.0 °F - 61.0 °F 93% 29.82 in 10.0 mi Calm Calm - N/A   Clear
2:53 AM 63.0 °F - 60.1 °F 90% 29.82 in 9.0 mi Calm Calm - N/A   Clear
3:53 AM 63.0 °F - 60.1 °F 90% 29.83 in 10.0 mi Calm Calm - N/A   Scattered Clouds
4:08 AM 63.0 °F - 60.1 °F 90% 29.83 in 9.0 mi Calm Calm - N/A   Mostly Cloudy
4:53 AM 63.0 °F - 60.1 °F 90% 29.84 in 8.0 mi Calm Calm - N/A   Scattered Clouds
5:53 AM 63.0 °F - 61.0 °F 93% 29.86 in 5.0 mi East 3.5 mph - N/A   Clear
6:53 AM 64.9 °F - 63.0 °F 93% 29.87 in 2.5 mi East 4.6 mph - N/A   Overcast
7:53 AM 68.0 °F - 66.0 °F 93% 29.88 in 2.0 mi ESE 3.5 mph - N/A   Mostly Cloudy
8:33 AM 71.1 °F - 68.0 °F 90% 29.89 in 5.0 mi SE 3.5 mph - N/A   Mostly Cloudy
8:53 AM 73.0 °F - 69.1 °F 87% 29.89 in 5.0 mi Calm Calm - N/A   Partly Cloudy
9:53 AM 79.0 °F - 72.0 °F 79% 29.90 in 10.0 mi SE 4.6 mph - N/A   Clear
10:53 AM 82.0 °F 86.7 °F 72.0 °F 71% 29.91 in 10.0 mi SW 10.4 mph - N/A   Scattered Clouds
11:53 AM 84.0 °F 89.0 °F 71.1 °F 65% 29.90 in 10.0 mi South 11.5 mph - N/A   Mostly Cloudy
12:53 PM 84.0 °F 88.4 °F 70.0 °F 63% 29.88 in 10.0 mi South 10.4 mph - N/A   Overcast
1:53 PM 86.0 °F 91.5 °F 71.1 °F 61% 29.86 in 10.0 mi SSW 11.5 mph - N/A   Mostly Cloudy
2:53 PM 84.9 °F 89.4 °F 70.0 °F 61% 29.84 in 10.0 mi South 12.7 mph - N/A   Overcast
3:53 PM 84.9 °F 90.1 °F 71.1 °F 63% 29.83 in 10.0 mi South 10.4 mph - N/A   Mostly Cloudy
4:53 PM 84.0 °F 89.0 °F 71.1 °F 65% 29.83 in 10.0 mi South 6.9 mph - N/A   Partly Cloudy
5:53 PM 84.0 °F 89.0 °F 71.1 °F 65% 29.83 in 10.0 mi South 10.4 mph - N/A   Scattered Clouds
6:53 PM 81.0 °F 84.9 °F 71.1 °F 72% 29.84 in 10.0 mi South 5.8 mph - N/A   Scattered Clouds
7:53 PM 80.1 °F 83.6 °F 71.1 °F 74% 29.85 in 10.0 mi South 9.2 mph - N/A   Scattered Clouds
8:53 PM 78.1 °F - 71.1 °F 79% 29.88 in 10.0 mi South 10.4 mph - N/A   Clear
9:53 PM 77.0 °F - 71.1 °F 82% 29.88 in 10.0 mi South 11.5 mph - N/A   Clear
10:53 PM 75.9 °F - 72.0 °F 87% 29.88 in 10.0 mi SE 8.1 mph - N/A   Clear
11:53 PM 75.0 °F - 72.0 °F 90% 29.87 in 7.0 mi SSE 5.8 mph - N/A   Clear